When you browse on this site, cookies collect data to enhance your experience and personalize the content and advertising you see.
Visit our Privacy Policy to learn more. By continuing to use the site, you agree to this use of cookies and data.
  • en France
  • Liste des pays
  • À 7 jours
  • Température de l'eau
  • Carte météo
  • Widgets météo
  • user-avatar
    Se connecter

    Météo par heure à Choumen

    Ce jour, 21 Août, Mercredi

    Heure Température Précipitation Vent Pression Humidité
    00:00 +19°C° 0 mm 1 m/s 733 mmHg 60%
    01:00 +19°C° 0 mm 1 m/s 733 mmHg 59%
    02:00 +19°C° 0 mm 1 m/s 733 mmHg 59%
    03:00 +19°C° 0 mm 1 m/s 733 mmHg 60%
    04:00 +18°C° 0 mm 1 m/s 733 mmHg 61%
    05:00 +18°C° 0 mm 1 m/s 732 mmHg 62%
    06:00 +19°C° 0 mm 2 m/s 733 mmHg 55%
    07:00 +23°C° 0 mm 2 m/s 733 mmHg 47%
    08:00 +25°C° 0 mm 3 m/s 733 mmHg 40%
    09:00 +27°C° 0 mm 3 m/s 733 mmHg 37%
    10:00 +30°C° 0 mm 4 m/s 733 mmHg 34%
    11:00 +33°C° 0 mm 4 m/s 734 mmHg 30%
    12:00 +34°C° 0 mm 4 m/s 733 mmHg 28%
    13:00 +35°C° 0 mm 4 m/s 733 mmHg 26%
    14:00 +36°C° 0 mm 4 m/s 733 mmHg 24%
    15:00 +36°C° 0 mm 4 m/s 732 mmHg 25%
    16:00 +35°C° 0 mm 4 m/s 732 mmHg 26%
    17:00 +35°C° 0 mm 4 m/s 732 mmHg 26%
    18:00 +31°C° 0 mm 3 m/s 732 mmHg 36%
    19:00 +29°C° 0 mm 3 m/s 732 mmHg 46%
    20:00 +26°C° 0 mm 2 m/s 732 mmHg 56%
    21:00 +25°C° 0 mm 2 m/s 732 mmHg 63%
    22:00 +23°C° 0 mm 1 m/s 732 mmHg 71%
    23:00 +22°C° 0 mm 1 m/s 732 mmHg 78%

    Demain, 22 Août, Jeudi

    Heure Température Précipitation Vent Pression Humidité
    00:00 +22°C° 0 mm 1 m/s 732 mmHg 77%
    01:00 +22°C° 0 mm 1 m/s 732 mmHg 76%
    02:00 +21°C° 0 mm 1 m/s 732 mmHg 74%
    03:00 +21°C° 0 mm 1 m/s 732 mmHg 74%
    04:00 +21°C° 0 mm 1 m/s 732 mmHg 74%
    05:00 +20°C° 0 mm 2 m/s 732 mmHg 73%
    06:00 +23°C° 0 mm 2 m/s 732 mmHg 64%
    07:00 +25°C° 0 mm 3 m/s 733 mmHg 55%
    08:00 +27°C° 0 mm 4 m/s 733 mmHg 46%
    09:00 +29°C° 0 mm 5 m/s 733 mmHg 39%
    10:00 +32°C° 0 mm 5 m/s 734 mmHg 33%
    11:00 +34°C° 0 mm 6 m/s 734 mmHg 27%
    12:00 +35°C° 0 mm 6 m/s 734 mmHg 26%
    13:00 +35°C° 0 mm 6 m/s 733 mmHg 25%
    14:00 +36°C° 0 mm 6 m/s 733 mmHg 24%
    15:00 +36°C° 0 mm 6 m/s 733 mmHg 24%
    16:00 +35°C° 0 mm 6 m/s 733 mmHg 24%
    17:00 +35°C° 0 mm 6 m/s 733 mmHg 25%
    18:00 +32°C° 0 mm 5 m/s 733 mmHg 31%
    19:00 +28°C° 0 mm 3 m/s 733 mmHg 37%
    20:00 +26°C° 0 mm 2 m/s 733 mmHg 43%
    21:00 +25°C° 0 mm 2 m/s 734 mmHg 47%
    22:00 +24°C° 0 mm 2 m/s 734 mmHg 50%
    23:00 +23°C° 0 mm 1 m/s 734 mmHg 54%

    Après-demain, 23 Août, Vendredi

    Heure Température Précipitation Vent Pression Humidité
    00:00 +21°C° 0 mm 2 m/s 734 mmHg 58%
    01:00 +21°C° 0 mm 3 m/s 733 mmHg 63%
    02:00 +20°C° 0 mm 3 m/s 733 mmHg 67%
    03:00 +20°C° 0 mm 3 m/s 733 mmHg 72%
    04:00 +19°C° 0 mm 3 m/s 733 mmHg 78%
    05:00 +18°C° 0 mm 3 m/s 733 mmHg 83%
    06:00 +20°C° 0 mm 3 m/s 734 mmHg 76%
    07:00 +21°C° 0 mm 3 m/s 734 mmHg 70%
    08:00 +24°C° 0 mm 3 m/s 734 mmHg 63%
    09:00 +26°C° 0 mm 4 m/s 735 mmHg 53%
    10:00 +29°C° 0 mm 5 m/s 735 mmHg 44%
    11:00 +33°C° 0 mm 6 m/s 735 mmHg 34%
    12:00 +34°C° 0 mm 6 m/s 735 mmHg 31%
    13:00 +35°C° 0 mm 6 m/s 734 mmHg 29%
    14:00 +35°C° 0 mm 6 m/s 734 mmHg 26%
    15:00 +35°C° 0 mm 6 m/s 734 mmHg 26%
    16:00 +35°C° 0 mm 6 m/s 734 mmHg 26%
    17:00 +35°C° 0 mm 5 m/s 733 mmHg 26%
    18:00 +32°C° 0 mm 4 m/s 734 mmHg 34%
    19:00 +28°C° 0 mm 3 m/s 734 mmHg 41%
    20:00 +25°C° 0 mm 2 m/s 734 mmHg 49%
    21:00 +24°C° 0 mm 1 m/s 734 mmHg 54%
    22:00 +23°C° 0 mm 1 m/s 734 mmHg 58%
    23:00 +20°C° 0 mm 0 m/s 734 mmHg 63%

    24 Août, Samedi

    Heure Température Précipitation Vent Pression Humidité
    00:00 +22°C° 0 mm 1 m/s 733 mmHg 64%
    01:00 +22°C° 0 mm 1 m/s 733 mmHg 65%
    02:00 +21°C° 0 mm 2 m/s 733 mmHg 65%
    03:00 +20°C° 0 mm 2 m/s 733 mmHg 69%
    04:00 +19°C° 0 mm 2 m/s 733 mmHg 73%
    05:00 +19°C° 0 mm 2 m/s 733 mmHg 76%
    06:00 +21°C° 0 mm 3 m/s 734 mmHg 70%
    07:00 +24°C° 0 mm 3 m/s 734 mmHg 64%
    08:00 +25°C° 0 mm 4 m/s 734 mmHg 58%
    09:00 +28°C° 0 mm 4 m/s 734 mmHg 51%
    10:00 +30°C° 0 mm 5 m/s 735 mmHg 43%
    11:00 +33°C° 0 mm 6 m/s 735 mmHg 36%
    12:00 +34°C° 0 mm 6 m/s 734 mmHg 32%
    13:00 +35°C° 0 mm 5 m/s 734 mmHg 29%
    14:00 +36°C° 0 mm 5 m/s 734 mmHg 26%
    15:00 +36°C° 0 mm 5 m/s 734 mmHg 27%
    16:00 +35°C° 0 mm 5 m/s 733 mmHg 28%
    17:00 +34°C° 0 mm 5 m/s 733 mmHg 30%
    18:00 +32°C° 0 mm 4 m/s 733 mmHg 38%
    19:00 +28°C° 0 mm 3 m/s 733 mmHg 46%
    20:00 +25°C° 0 mm 2 m/s 733 mmHg 54%
    21:00 +24°C° 0 mm 2 m/s 733 mmHg 61%
    22:00 +23°C° 0 mm 1 m/s 733 mmHg 67%
    23:00 +21°C° 0 mm 1 m/s 733 mmHg 73%

    25 Août, Dimanche

    Heure Température Précipitation Vent Pression Humidité
    00:00 +21°C° 0 mm 1 m/s 732 mmHg 75%
    01:00 +21°C° 0 mm 1 m/s 732 mmHg 76%
    02:00 +20°C° 0 mm 1 m/s 732 mmHg 78%
    03:00 +20°C° 0 mm 1 m/s 732 mmHg 79%
    04:00 +20°C° 0 mm 1 m/s 732 mmHg 81%
    05:00 +19°C° 0 mm 1 m/s 732 mmHg 83%
    06:00 +21°C° 0 mm 2 m/s 732 mmHg 72%
    07:00 +24°C° 0 mm 2 m/s 733 mmHg 61%
    08:00 +27°C° 0 mm 2 m/s 733 mmHg 49%
    09:00 +29°C° 0 mm 3 m/s 733 mmHg 43%
    10:00 +32°C° 0 mm 4 m/s 733 mmHg 37%
    11:00 +35°C° 0 mm 5 m/s 733 mmHg 30%
    12:00 +35°C° 0 mm 5 m/s 733 mmHg 29%
    13:00 +36°C° 0 mm 5 m/s 733 mmHg 27%
    14:00 +37°C° 0 mm 5 m/s 733 mmHg 26%
    15:00 +35°C° 0 mm 6 m/s 733 mmHg 29%
    16:00 +34°C° 0 mm 6 m/s 732 mmHg 32%
    17:00 +33°C° 0 mm 6 m/s 732 mmHg 35%
    18:00 +29°C° 0 mm 5 m/s 732 mmHg 42%
    19:00 +27°C° 0 mm 4 m/s 732 mmHg 49%
    20:00 +24°C° 0 mm 3 m/s 732 mmHg 56%
    21:00 +23°C° 0 mm 2 m/s 732 mmHg 61%
    22:00 +22°C° 0 mm 1 m/s 732 mmHg 66%
    23:00 +21°C° 0 mm 1 m/s 732 mmHg 71%

    26 Août, Lundi

    Heure Température Précipitation Vent Pression Humidité
    00:00 +20°C° 0 mm 1 m/s 732 mmHg 71%
    01:00 +20°C° 0 mm 1 m/s 732 mmHg 71%
    02:00 +20°C° 0 mm 1 m/s 732 mmHg 71%
    03:00 +19°C° 0 mm 1 m/s 732 mmHg 72%
    04:00 +19°C° 0 mm 1 m/s 732 mmHg 73%
    05:00 +19°C° 0 mm 1 m/s 732 mmHg 74%
    06:00 +20°C° 0 mm 2 m/s 732 mmHg 65%
    07:00 +23°C° 0 mm 2 m/s 733 mmHg 56%
    08:00 +26°C° 0 mm 3 m/s 733 mmHg 47%
    09:00 +28°C° 0 mm 4 m/s 733 mmHg 40%
    10:00 +30°C° 0 mm 4 m/s 734 mmHg 33%
    11:00 +34°C° 0 mm 5 m/s 734 mmHg 26%
    12:00 +35°C° 0 mm 5 m/s 733 mmHg 25%
    13:00 +35°C° 0 mm 4 m/s 733 mmHg 23%
    14:00 +36°C° 0 mm 4 m/s 733 mmHg 22%
    15:00 +35°C° 0 mm 5 m/s 732 mmHg 24%
    16:00 +35°C° 0 mm 5 m/s 732 mmHg 27%
    17:00 +34°C° 0 mm 5 m/s 732 mmHg 30%
    18:00 +30°C° 0 mm 4 m/s 732 mmHg 42%
    19:00 +26°C° 0 mm 3 m/s 732 mmHg 55%
    20:00 +23°C° 0 mm 2 m/s 732 mmHg 68%
    21:00 +21°C° 0 mm 2 m/s 732 mmHg 73%
    22:00 +21°C° 0 mm 1 m/s 732 mmHg 79%
    23:00 +20°C° 0 mm 1 m/s 732 mmHg 84%
    Voir plus